Regional Weather Roundup
Issued by NWS

Home | Current Version | Previous Version | Text Only | Print | Product List | Glossary Off
Versions: 1 2 3 4 5 6 7 8 9 10 11 12 13 14 15 16 17 18 19 20 21 22 23 24 25 26 27 28 29 30 31 32 33 34 35 36 37 38 39 40 41 42 43 44 45 46 47 48 49 50

000
ASUS43 KFSD 250810
RWRSD

WEATHER ROUNDUP FOR SOUTH DAKOTA
NATIONAL WEATHER SERVICE SIOUX FALLS SD
300 AM CDT SAT OCT 25 2014

NOTE: "FAIR" INDICATES FEW OR NO CLOUDS BELOW 12,000 FEET WITH NO
SIGNIFICANT WEATHER AND/OR OBSTRUCTIONS TO VISIBILITY.


SDZ001>005-009-010-012>017-250900-
NORTHWEST AND NORTH CENTRAL SOUTH DAKOTA

CITY           SKY/WX    TMP DP  RH WIND       PRES   REMARKS
BUFFALO          N/A     49  30  48 NW7       30.07S
FAITH            N/A     49  32  52 NW9       30.12R
MOBRIDGE       MOCLDY    51  39  63 NW3       30.08R
$$

SDZ012>016-024>037-041>051-057-063-072>074-250900-
SOUTHWEST AND SOUTH CENTRAL SOUTH DAKOTA

CITY           SKY/WX    TMP DP  RH WIND       PRES   REMARKS
RAPID CTY ARPT CLEAR     41  31  67 NW9       30.15S
PIERRE         PTCLDY    47  36  65 NW6       30.10R
CUSTER         CLEAR     40  31  70 N3        30.20S
ELLSWORTH AFB  CLEAR     41  33  73 W8        30.16R
PHILIP         CLEAR     39  34  82 W7        30.13S
PINE RIDGE     CLEAR     32  30  92 CALM      30.15R
SPEARFISH      FAIR      41  30  65 SE3       30.17F
WINNER         FAIR      49  35  58 W5        30.12R
$$

SDZ004>011-016>023-039-040-250900-
NORTHEAST SOUTH DAKOTA

CITY           SKY/WX    TMP DP  RH WIND       PRES   REMARKS
ABERDEEN       MOCLDY    53  37  54 NW5       30.07R
WATERTOWN      CLOUDY    53  38  56 NW6       30.06R
SISSETON         N/A     57  33  40 NW14      30.04R
$$

SDZ017-020-022-023-036>040-048>070-250900-
SOUTHEAST SOUTH DAKOTA

CITY           SKY/WX    TMP DP  RH WIND       PRES   REMARKS
SIOUX FALLS    PTCLDY    50  41  71 CALM      30.05R
HURON          MOCLDY    51  40  65 N6        30.08R
CHAMBERLAIN    PTCLDY    52  36  54 CALM      30.10R
MITCHELL       CLEAR     51  39  63 W6        30.08R
YANKTON        CLEAR     48  39  71 NW10      30.06R
$$

ABBREVIATIONS USED IN REMARKS
   TC - TEMPERATURE IN CELSIUS
  WCI - WIND CHILL INDEX
   HX - HEAT INDEX
  VSB - VISIBILITY




USA.gov is the U.S. government's official web portal to all federal, state and local government web resources and services.